EW8792 Morava BG current weather conditions

sailwx.info

Wind from 016 at 4 knots gusting 6

Air temperature 12.2° C
Dewpoint -10.1° C

Last reported at 2020-Jan-22 12:55 UTC.
Time now 2020-Jan-22 13:26 UTC

Location: N 43°28' E 025°13'.
View on Google Maps.

See reports from other nearby stations

  
Tides and Currents Weather Stations Pressure Air Temp Water Temp Dewpoint Dewpoint Depression Visibility Wind Speed Wind Dir Waves Ship Positions
date/time (UTC)wind fromknots sea level pressurealtimeterstation pressurevisibilityair tempwater tempwave heightnotes
2020-Jan-22 13:10 349 2 gusting 3 12.2
2020-Jan-22 13:05 319 3 gusting 5 12.2
2020-Jan-22 13:00 342 4 gusting 6 12.2
2020-Jan-22 12:55 016 4 gusting 6 12.2
2020-Jan-22 12:50 293 4 gusting 7 12.2
2020-Jan-22 12:45 284 4 gusting 7 12.2
2020-Jan-22 12:40 309 3 gusting 4 12.2
2020-Jan-22 12:35 275 3 gusting 6 11.7
2020-Jan-22 12:30 276 4 gusting 6 11.7
2020-Jan-22 12:25 349 4 gusting 9 12.2
2020-Jan-22 12:20 327 5 gusting 10 11.7
2020-Jan-22 12:15 319 5 gusting 10 11.7
2020-Jan-22 12:10 341 4 gusting 6 11.7
2020-Jan-22 12:05 341 4 gusting 6 11.7
2020-Jan-22 12:00 313 3 gusting 6 11.7
2020-Jan-22 11:55 305 3 gusting 4 11.7
2020-Jan-22 11:50 335 3 gusting 4 11.7
2020-Jan-22 11:45 338 4 gusting 6 11.1
2020-Jan-22 11:40 310 4 gusting 6 11.1
2020-Jan-22 11:35 288 4 gusting 6 10.6
2020-Jan-22 11:30 287 4 gusting 5 10.6
2020-Jan-22 11:25 305 3 gusting 5 11.1
2020-Jan-22 11:20 306 1 gusting 5 11.1
2020-Jan-22 11:15 309 2 gusting 3 10.6
2020-Jan-22 11:10 317 2 gusting 6 10.0
2020-Jan-22 11:05 313 2 gusting 6 10.0
2020-Jan-22 11:00 317 2 gusting 3 10.6
2020-Jan-22 10:55 310 2 gusting 4 10.6
2020-Jan-22 10:50 004 2 gusting 6 10.6
2020-Jan-22 10:45 339 3 gusting 6 10.6
2020-Jan-22 10:40 316 2 gusting 4 10.6
2020-Jan-22 10:35 294 2 gusting 4 10.6
2020-Jan-22 10:30 313 3 gusting 4 10.6
2020-Jan-22 10:25 335 2 gusting 3 10.0
2020-Jan-22 10:20 330 2 gusting 5 9.4
2020-Jan-22 10:15 305 3 gusting 6 8.9
2020-Jan-22 10:10 304 4 gusting 6 8.9
2020-Jan-22 10:05 310 2 gusting 6 10.0
2020-Jan-22 10:00 296 2 gusting 5 9.4
2020-Jan-22 09:55 303 2 gusting 5 8.3
2020-Jan-22 09:50 314 3 gusting 5 8.3
2020-Jan-22 09:45 308 2 gusting 5 8.3
2020-Jan-22 09:40 277 2 gusting 3 8.3
2020-Jan-22 09:35 238 1 gusting 3 7.8
2020-Jan-22 09:30 145 1 gusting 2 7.2
2020-Jan-22 09:25 109 1 gusting 2 7.2
2020-Jan-22 09:20 008 0 gusting 1 6.7
2020-Jan-22 09:15 060 1 gusting 1 6.1
2020-Jan-22 09:10 106 1 gusting 1 5.6
2020-Jan-22 09:05 057 1 gusting 1 5.6
2020-Jan-22 09:00 030 1 gusting 2 5.6
2020-Jan-22 08:55 103 1 gusting 2 4.4
2020-Jan-22 08:50 100 1 gusting 2 4.4
2020-Jan-22 08:45 081 1 gusting 2 5.0
2020-Jan-22 08:40 086 1 gusting 3 4.4
2020-Jan-22 08:35 108 1 gusting 3 4.4
2020-Jan-22 08:30 122 0 gusting 3 5.6
2020-Jan-22 08:25 060 0 gusting 1 5.6
2020-Jan-22 08:20 086 0 gusting 1 4.4
2020-Jan-22 08:15 099 1 gusting 1 4.4
2020-Jan-22 08:10 111 1 gusting 1 3.9
2020-Jan-22 08:05 117 1 gusting 1 3.3
2020-Jan-22 08:00 119 1 gusting 1 3.3
2020-Jan-22 07:55 120 0 gusting 1 3.9
2020-Jan-22 07:50 120 0 gusting 1 3.9
2020-Jan-22 07:45 129 0 gusting 1 3.9
2020-Jan-22 07:40 139 0 gusting 1 3.3
2020-Jan-22 07:35 160 0 gusting 1 3.3
2020-Jan-22 07:30 217 3.3
2020-Jan-22 07:25 261 2.8
2020-Jan-22 07:20 218 2.8
2020-Jan-22 07:15 018 2.2
2020-Jan-22 07:10 053 1.1
2020-Jan-22 07:05 106 0 gusting 1 -0.0
2020-Jan-22 07:00 127 0 gusting 1 -0.0
2020-Jan-22 06:55 132 0.6
2020-Jan-22 06:50 1.1
2020-Jan-22 06:45 -0.0
2020-Jan-22 06:40 -1.7
2020-Jan-22 06:35 -2.2
2020-Jan-22 06:30 -3.9
2020-Jan-22 06:25 -4.4
2020-Jan-22 06:20 314 -5.6
2020-Jan-22 06:15 314 -5.6
2020-Jan-22 06:10 191 -6.7
2020-Jan-22 06:05 201 -7.2
2020-Jan-22 06:00 307 -7.2
2020-Jan-22 05:55 001 0 gusting 1 -7.2
2020-Jan-22 05:50 007 0 gusting 1 -7.2
2020-Jan-22 05:45 011 0 gusting 1 -7.2
2020-Jan-22 05:40 336 -7.8
2020-Jan-22 05:35 001 -7.8
2020-Jan-22 05:30 001 -7.8
2020-Jan-22 05:25 001 -7.8
2020-Jan-22 05:20 270 -7.8
2020-Jan-22 05:15 270 -7.8
2020-Jan-22 05:10 314 -7.8
2020-Jan-22 05:05 342 0 gusting 1 -7.8
2020-Jan-22 05:00 345 0 gusting 1 -7.8
2020-Jan-22 04:55 001 -7.8
2020-Jan-22 04:50 -7.8
2020-Jan-22 04:45 -7.8
2020-Jan-22 04:40 -7.8
2020-Jan-22 04:35 -7.2
2020-Jan-22 04:30 -7.2
2020-Jan-22 04:25 -7.2
2020-Jan-22 04:20 -7.2
2020-Jan-22 04:10 -7.2
2020-Jan-22 04:05 -7.2
2020-Jan-22 04:00 -7.2
2020-Jan-22 03:55 314 -7.2
2020-Jan-22 03:50 314 -7.2
2020-Jan-22 03:45 -7.2
2020-Jan-22 03:40 -7.2
2020-Jan-22 03:35 -7.2
2020-Jan-22 03:30 -7.2
2020-Jan-22 03:25 314 -7.2
2020-Jan-22 03:20 314 -7.2
2020-Jan-22 03:15 -7.2
2020-Jan-22 03:10 -7.2
2020-Jan-22 03:05 -7.2
2020-Jan-22 03:00 -7.2
2020-Jan-22 02:55 -7.2
2020-Jan-22 02:50 -6.7
2020-Jan-22 02:45 -6.7
2020-Jan-22 02:40 314 -6.7
2020-Jan-22 02:35 314 -6.7
2020-Jan-22 02:30 328 0 gusting 1 -6.7
2020-Jan-22 02:25 090 -6.1
2020-Jan-22 02:20 -6.1
2020-Jan-22 02:15 314 -6.1
2020-Jan-22 02:10 314 -6.1
2020-Jan-22 02:05 -6.1
2020-Jan-22 02:00 -6.1
2020-Jan-22 01:55 314 -6.1
2020-Jan-22 01:50 314 -6.1
2020-Jan-22 01:45 314 -6.1
2020-Jan-22 01:40 314 -6.1
2020-Jan-22 01:35 314 -6.1
2020-Jan-22 01:30 233 -6.1
2020-Jan-22 01:25 225 -6.1
2020-Jan-22 01:20 309 -6.1
2020-Jan-22 01:15 314 -6.1
2020-Jan-22 01:10 314 -6.1
2020-Jan-22 01:05 314 0 gusting 1 -6.1
2020-Jan-22 01:00 325 -6.1
2020-Jan-22 00:55 335 -6.1
2020-Jan-22 00:50 -6.1
2020-Jan-22 00:45 -6.1
2020-Jan-22 00:40 -6.1
2020-Jan-22 00:35 -6.1
2020-Jan-22 00:30 -6.1
2020-Jan-22 00:25 -6.1
2020-Jan-22 00:20 -6.1
2020-Jan-22 00:15 -6.1
2020-Jan-22 00:10 -6.1
2020-Jan-22 00:05 337 -6.1
2020-Jan-22 00:00 355 -5.6
2020-Jan-21 23:55 001 -5.6
2020-Jan-21 23:50 270 -5.6
2020-Jan-21 23:45 270 -5.6
2020-Jan-21 23:40 338 -5.6
2020-Jan-21 23:35 071 0 gusting 1 -5.6
2020-Jan-21 23:30 073 0 gusting 1 -5.6
2020-Jan-21 23:25 001 -5.6
2020-Jan-21 23:20 -5.6
2020-Jan-21 23:15 -5.6
2020-Jan-21 23:10 -5.0
2020-Jan-21 23:05 -5.0
2020-Jan-21 23:00 -5.6
2020-Jan-21 22:55 -5.0
2020-Jan-21 22:50 -5.0
2020-Jan-21 22:45 -5.0
2020-Jan-21 22:40 -5.0
2020-Jan-21 22:35 -4.4
2020-Jan-21 22:30 001 -4.4
2020-Jan-21 22:25 001 -4.4
2020-Jan-21 22:20 001 -4.4
2020-Jan-21 22:15 001 -3.9
2020-Jan-21 22:10 001 -3.9
2020-Jan-21 22:05 001 -3.9
2020-Jan-21 22:00 001 -3.9
2020-Jan-21 21:55 001 -4.4
2020-Jan-21 21:50 332 -4.4
2020-Jan-21 21:45 348 -4.4
2020-Jan-21 21:40 022 -4.4
2020-Jan-21 21:35 -4.4
2020-Jan-21 21:30 -4.4
2020-Jan-21 21:25 -3.9
2020-Jan-21 21:20 -3.9
2020-Jan-21 21:15 314 -3.9
2020-Jan-21 21:10 314 -3.9
2020-Jan-21 21:05 314 -3.9
2020-Jan-21 21:00 314 0 gusting 1 -3.3
2020-Jan-21 20:55 314 -3.3
2020-Jan-21 20:50 -3.3
2020-Jan-21 20:45 341 -3.3
2020-Jan-21 20:40 353 0 gusting 1 -2.8
2020-Jan-21 20:35 356 0 gusting 1 -2.8
2020-Jan-21 20:30 300 0 gusting 1 -2.8
2020-Jan-21 20:25 304 0 gusting 1 -2.8
2020-Jan-21 20:20 282 0 gusting 1 -2.8
2020-Jan-21 20:15 315 0 gusting 1 -2.8
2020-Jan-21 20:10 325 0 gusting 1 -2.8
2020-Jan-21 20:05 276 -2.8
2020-Jan-21 20:00 282 0 gusting 0 -2.2
2020-Jan-21 19:55 288 -2.2
2020-Jan-21 19:50 225 0 gusting 1 -2.2
2020-Jan-21 19:45 288 0 gusting 1 -2.2
2020-Jan-21 19:40 310 0 gusting 1 -2.2
2020-Jan-21 19:35 278 0 gusting 1 -2.2
2020-Jan-21 19:30 316 0 gusting 1 -1.7
2020-Jan-21 19:25 337 0 gusting 1 -1.7
2020-Jan-21 19:20 343 0 gusting 1 -1.7
2020-Jan-21 19:15 344 0 gusting 0 -1.7
2020-Jan-21 19:10 313 0 gusting 1 -1.1
2020-Jan-21 19:05 292 0 gusting 2 -1.1
2020-Jan-21 19:00 299 1 gusting 2 -1.1
2020-Jan-21 18:55 310 1 gusting 3 -0.6
2020-Jan-21 18:50 311 2 gusting 3 -0.6
2020-Jan-21 18:45 324 1 gusting 3 -0.6
2020-Jan-21 18:40 328 1 gusting 2 -0.6
2020-Jan-21 18:35 322 1 gusting 2 -0.6
2020-Jan-21 18:30 332 0 gusting 1 -0.6
2020-Jan-21 18:25 333 0 gusting 1 -0.6
2020-Jan-21 18:20 337 0 gusting 1 -0.6
2020-Jan-21 18:15 321 0 gusting 1 -0.6
2020-Jan-21 18:10 309 0 gusting 1 -0.6
2020-Jan-21 18:05 322 0 gusting 1 -1.1
2020-Jan-21 18:00 348 0 gusting 1 -1.7
2020-Jan-21 17:55 001 -1.7
2020-Jan-21 17:50 001 -1.7
2020-Jan-21 17:45 001 -1.7
2020-Jan-21 17:40 334 -1.7
2020-Jan-21 17:35 342 -1.7
2020-Jan-21 17:30 347 -1.7
2020-Jan-21 17:25 001 -1.7
2020-Jan-21 17:20 001 -1.7
2020-Jan-21 17:15 001 -1.7
2020-Jan-21 17:10 001 -1.7
2020-Jan-21 17:05 001 -1.7
2020-Jan-21 17:00 347 -1.7
2020-Jan-21 16:55 331 -1.7
2020-Jan-21 16:50 -1.7
2020-Jan-21 16:45 -1.7
2020-Jan-21 16:40 -1.7
2020-Jan-21 16:35 090 -1.1
2020-Jan-21 16:30 090 -1.1
2020-Jan-21 16:25 090 -0.6
2020-Jan-21 16:20 -0.6
2020-Jan-21 16:15 -0.6
2020-Jan-21 16:10 -0.0
2020-Jan-21 16:05 314 -0.0
2020-Jan-21 16:00 314 -0.0
2020-Jan-21 15:55 314 0.6
2020-Jan-21 15:50 314 0.6
2020-Jan-21 15:45 314 0.6
2020-Jan-21 15:40 0.6
2020-Jan-21 15:35 1.1
2020-Jan-21 15:30 1.7
2020-Jan-21 15:25 314 1.7
2020-Jan-21 15:20 314 2.2
2020-Jan-21 15:15 314 0 gusting 1 2.2
2020-Jan-21 15:10 314 2.8
2020-Jan-21 15:05 002 2.8
2020-Jan-21 15:00 357 0 gusting 0 3.3
2020-Jan-21 14:55 337 0 gusting 1 3.3
2020-Jan-21 14:50 321 1 gusting 3 3.9
2020-Jan-21 14:45 317 1 gusting 3 3.9
2020-Jan-21 14:40 319 2 gusting 3 4.4
2020-Jan-21 14:35 312 1 gusting 1 4.4
2020-Jan-21 14:30 310 2 gusting 3 4.4
2020-Jan-21 14:25 298 2 gusting 3 4.4
2020-Jan-21 14:20 290 2 gusting 4 4.4
2020-Jan-21 14:15 307 2 gusting 4 5.0
2020-Jan-21 14:10 311 3 gusting 4 5.0
2020-Jan-21 14:05 282 3 gusting 4 5.0
2020-Jan-21 14:00 298 3 gusting 4 5.0
2020-Jan-21 13:55 320 4 gusting 6 5.6
2020-Jan-21 13:50 309 4 gusting 6 5.6
2020-Jan-21 13:45 303 4 gusting 6 5.6
2020-Jan-21 13:40 318 6 gusting 8 6.1
2020-Jan-21 13:35 320 5 gusting 8 6.1
2020-Jan-21 13:30 317 4 gusting 6 6.7
2020-Jan-21 13:25 327 4 gusting 6 6.1
2020-Jan-21 13:20 330 3 gusting 5 6.1
2020-Jan-21 13:15 304 4 gusting 7 6.1
2020-Jan-21 13:10 305 4 gusting 7 6.1
2020-Jan-21 13:05 313 4 gusting 6 6.1
2020-Jan-21 13:00 309 4 gusting 6 6.1
2020-Jan-21 12:55 318 5 gusting 9 6.1
2020-Jan-21 12:50 302 6 gusting 10 6.1
2020-Jan-21 12:45 306 6 gusting 10 6.1
2020-Jan-21 12:40 323 6 gusting 8 6.1
2020-Jan-21 12:35 329 6 gusting 8 6.1
2020-Jan-21 12:30 348 6 gusting 10 6.1
2020-Jan-21 12:25 331 7 gusting 10 6.1
2020-Jan-21 12:20 318 7 gusting 12 5.6
2020-Jan-21 12:15 321 6 gusting 12 5.6
2020-Jan-21 12:10 302 6 gusting 12 6.1
2020-Jan-21 12:05 298 6 gusting 8 5.6
2020-Jan-21 12:00 295 6 gusting 8 5.6
2020-Jan-21 11:55 306 6 gusting 8 5.6
2020-Jan-21 11:50 318 6 gusting 9 5.6
2020-Jan-21 11:45 322 6 gusting 9 5.6
2020-Jan-21 11:40 324 8 gusting 10 5.6
2020-Jan-21 11:35 329 8 gusting 10 5.6
2020-Jan-21 11:30 328 6 gusting 9 5.6
2020-Jan-21 11:25 304 6 gusting 11 5.6
2020-Jan-21 11:20 302 7 gusting 11 5.6
2020-Jan-21 11:15 321 7 gusting 10 5.0
2020-Jan-21 11:10 320 7 gusting 10 5.0
2020-Jan-21 11:05 300 6 gusting 9 5.0
2020-Jan-21 11:00 312 6 gusting 9 5.0
2020-Jan-21 10:55 303 6 gusting 12 5.6
2020-Jan-21 10:50 305 6 gusting 12 5.0
2020-Jan-21 10:45 316 6 gusting 10 5.0
2020-Jan-21 10:40 314 6 gusting 6 5.6
2020-Jan-21 10:35 308 6 gusting 8 5.6
2020-Jan-21 10:30 312 6 gusting 8 5.0
2020-Jan-21 10:25 313 6 gusting 11 5.0
2020-Jan-21 10:20 313 7 gusting 11 4.4
2020-Jan-21 10:15 330 7 gusting 11 4.4
2020-Jan-21 10:10 342 8 gusting 12 4.4
2020-Jan-21 10:05 337 7 gusting 12 4.4
2020-Jan-21 10:00 316 6 gusting 9 4.4
2020-Jan-21 09:55 317 6 gusting 8 4.4
2020-Jan-21 09:50 317 6 gusting 9 3.9
2020-Jan-21 09:45 306 7 gusting 10 3.9
2020-Jan-21 09:40 310 6 gusting 10 3.9
2020-Jan-21 09:35 322 5 gusting 7 3.9
2020-Jan-21 09:30 319 6 gusting 8 3.9
2020-Jan-21 09:25 326 7 gusting 10 3.3
2020-Jan-21 09:20 323 8 gusting 10 3.3
2020-Jan-21 09:15 320 7 gusting 9 3.3
2020-Jan-21 09:10 326 7 gusting 10 3.3
2020-Jan-21 09:05 322 8 gusting 10 3.3
2020-Jan-21 09:00 306 6 gusting 9 3.3
2020-Jan-21 08:55 294 6 gusting 8 3.3
2020-Jan-21 08:50 311 6 gusting 8 2.8
2020-Jan-21 08:45 321 5 gusting 8 2.8
2020-Jan-21 08:40 316 4 gusting 7 2.8
2020-Jan-21 08:35 314 4 gusting 7 2.8
2020-Jan-21 08:30 318 3 gusting 6 2.8
2020-Jan-21 08:25 321 3 gusting 6 2.8
2020-Jan-21 08:20 355 3 gusting 4 2.8
2020-Jan-21 08:15 345 2 gusting 4 2.8
2020-Jan-21 08:10 332 2 gusting 3 2.8
2020-Jan-21 08:05 344 2 gusting 3 2.8
2020-Jan-21 08:00 322 2 gusting 3 2.8
2020-Jan-21 07:55 323 1 gusting 3 2.8
2020-Jan-21 07:50 334 1 gusting 1 2.8
2020-Jan-21 07:45 307 1 gusting 2 2.2
2020-Jan-21 07:40 298 1 gusting 2 2.2
2020-Jan-21 07:35 323 1 gusting 3 1.7
2020-Jan-21 07:30 317 1 gusting 3 1.7
2020-Jan-21 07:25 304 0 gusting 2 1.1
2020-Jan-21 07:20 329 0.6
2020-Jan-21 07:15 335 -0.0
2020-Jan-21 07:10 292 -0.6
2020-Jan-21 07:05 -1.1
2020-Jan-21 07:00 -1.7
2020-Jan-21 06:55 -1.7
2020-Jan-21 06:50 -1.7
2020-Jan-21 06:45 -2.2
2020-Jan-21 06:40 -2.8
2020-Jan-21 06:35 225 -3.3
2020-Jan-21 06:30 342 -3.9
2020-Jan-21 06:25 001 0 gusting 1 -4.4
2020-Jan-21 06:20 001 0 gusting 1 -5.0
2020-Jan-21 06:15 356 0 gusting 1 -5.6
2020-Jan-21 06:10 355 -5.6
2020-Jan-21 06:05 015 -5.6
2020-Jan-21 06:00 015 -6.1
2020-Jan-21 05:55 -6.1
2020-Jan-21 05:50 -5.6
2020-Jan-21 05:45 314 -5.6
2020-Jan-21 05:40 314 -5.6
2020-Jan-21 05:35 -5.6
2020-Jan-21 05:30 314 -5.6
2020-Jan-21 05:25 335 -5.0
2020-Jan-21 05:20 314 -5.0
2020-Jan-21 05:15 280 -5.0
2020-Jan-21 05:10 -4.4
2020-Jan-21 05:05 -4.4
2020-Jan-21 05:00 -4.4
2020-Jan-21 04:55 -3.9
2020-Jan-21 04:50 311 -3.9
2020-Jan-21 04:45 317 0 gusting 1 -3.9
2020-Jan-21 04:40 343 0 gusting 1 -3.3
2020-Jan-21 04:35 341 0 gusting 1 -3.3
2020-Jan-21 04:30 333 0 gusting 1 -3.3
2020-Jan-21 04:25 356 0 gusting 2 -3.9
2020-Jan-21 04:20 358 0 gusting 2 -3.9
2020-Jan-21 04:15 359 0 gusting 1 -3.9
2020-Jan-21 04:10 345 0 gusting 1 -4.4
2020-Jan-21 04:05 338 0 gusting 1 -5.0
2020-Jan-21 04:00 338 0 gusting 1 -6.1
2020-Jan-21 03:55 256 -6.1
2020-Jan-21 03:50 120 -6.1
2020-Jan-21 03:45 144 -6.1
2020-Jan-21 03:40 181 -6.1
2020-Jan-21 03:35 181 -6.1
2020-Jan-21 03:30 005 -5.6
2020-Jan-21 03:25 044 0 gusting 1 -5.6
2020-Jan-21 03:20 074 0 gusting 1 -5.6
2020-Jan-21 03:15 055 0 gusting 1 -5.6
2020-Jan-21 03:10 026 -5.6
2020-Jan-21 03:05 -5.6
2020-Jan-21 02:55 348 0 gusting 1 -5.0
2020-Jan-21 02:50 347 -5.0
2020-Jan-21 02:45 155 0 gusting 1 -5.0
2020-Jan-21 02:40 139 0 gusting 1 -5.0
2020-Jan-21 02:35 125 0 gusting 1 -5.0
2020-Jan-21 02:30 139 0 gusting 1 -4.4
2020-Jan-21 02:25 122 0 gusting 1 -4.4
2020-Jan-21 02:20 075 0 gusting 1 -4.4
2020-Jan-21 02:15 013 0 gusting 1 -4.4
2020-Jan-21 02:10 033 0 gusting 1 -3.9
2020-Jan-21 02:05 021 1 gusting 2 -3.9
2020-Jan-21 02:00 293 1 gusting 2 -3.9
2020-Jan-21 01:55 288 1 gusting 3 -3.9
2020-Jan-21 01:50 344 1 gusting 3 -3.9
2020-Jan-21 01:45 051 1 gusting 1 -4.4
2020-Jan-21 01:40 078 0 gusting 1 -4.4
2020-Jan-21 01:35 076 -5.0
2020-Jan-21 01:30 -5.0
2020-Jan-21 01:25 321 -5.0
2020-Jan-21 01:20 333 0 gusting 1 -4.4
2020-Jan-21 01:15 331 0 gusting 1 -4.4
2020-Jan-21 01:10 333 0 gusting 1 -4.4
2020-Jan-21 01:05 347 0 gusting 1 -4.4
2020-Jan-21 01:00 299 0 gusting 1 -4.4
2020-Jan-21 00:55 287 -4.4
2020-Jan-21 00:50 359 -4.4
2020-Jan-21 00:45 069 -4.4
2020-Jan-21 00:40 136 -3.9
2020-Jan-21 00:35 135 -3.9
2020-Jan-21 00:30 071 0 gusting 1 -3.9
2020-Jan-21 00:25 145 0 gusting 1 -3.9
2020-Jan-21 00:20 194 -3.9
2020-Jan-21 00:15 171 -3.9
2020-Jan-21 00:10 170 -3.9
2020-Jan-21 00:05 352 0 gusting 1 -3.3
2020-Jan-21 00:00 010 0 gusting 1 -3.3
2020-Jan-20 23:55 339 0 gusting 1 -3.3
2020-Jan-20 23:50 314 0 gusting 1 -3.3
2020-Jan-20 23:45 001 0 gusting 1 -3.3
2020-Jan-20 23:40 026 0 gusting 1 -3.3
2020-Jan-20 23:35 331 0 gusting 3 -3.3
2020-Jan-20 23:30 333 0 gusting 3 -3.3
2020-Jan-20 23:25 207 0 gusting 2 -3.3
2020-Jan-20 23:20 230 0 gusting 2 -2.8
2020-Jan-20 23:15 073 0 gusting 2 -2.8
2020-Jan-20 23:10 006 0 gusting 2 -2.8
2020-Jan-20 23:05 333 0 gusting 1 -2.8
2020-Jan-20 23:00 347 0 gusting 1 -2.8
2020-Jan-20 22:55 005 0 gusting 1 -2.8
2020-Jan-20 22:50 004 0 gusting 1 -2.8
2020-Jan-20 22:45 351 0 gusting 1 -2.8
2020-Jan-20 22:40 350 0 gusting 1 -2.8
2020-Jan-20 22:35 352 0 gusting 1 -2.8
2020-Jan-20 22:30 356 0 gusting 1 -2.8
2020-Jan-20 22:25 349 0 gusting 1 -2.8
2020-Jan-20 22:20 357 0 gusting 1 -2.8
2020-Jan-20 22:15 012 0 gusting 1 -2.2
2020-Jan-20 22:10 351 0 gusting 1 -2.2
2020-Jan-20 22:05 350 0 gusting 1 -2.2
2020-Jan-20 21:55 341 0 gusting 1 -2.2
2020-Jan-20 21:50 340 0 gusting 2 -2.2
2020-Jan-20 21:45 347 0 gusting 2 -2.2
2020-Jan-20 21:40 331 1 gusting 1 -2.2
2020-Jan-20 21:35 323 1 gusting 1 -2.2
2020-Jan-20 21:30 337 1 gusting 1 -1.7
2020-Jan-20 21:25 354 1 gusting 1 -1.7
2020-Jan-20 21:20 350 1 gusting 1 -1.7
2020-Jan-20 21:15 013 1 gusting 1 -1.7
2020-Jan-20 21:10 009 1 gusting 1 -1.7
2020-Jan-20 21:05 340 1 gusting 1 -1.7
2020-Jan-20 21:00 334 1 gusting 1 -1.7
2020-Jan-20 20:55 336 0 gusting 1 -1.7
2020-Jan-20 20:50 342 0 gusting 1 -1.7
2020-Jan-20 20:45 333 0 gusting 1 -1.7
2020-Jan-20 20:40 334 1 gusting 1 -1.7
2020-Jan-20 20:35 342 0 gusting 1 -1.7
2020-Jan-20 20:30 326 0 gusting 1 -1.1
2020-Jan-20 20:25 329 1 gusting 1 -1.1
2020-Jan-20 20:20 329 1 gusting 1 -1.1
2020-Jan-20 20:15 330 1 gusting 1 -1.7
2020-Jan-20 20:10 344 1 gusting 1 -1.7
2020-Jan-20 20:05 348 0 gusting 1 -1.7
2020-Jan-20 20:00 343 0 gusting 1 -1.7
2020-Jan-20 19:55 330 0 gusting 1 -1.7
2020-Jan-20 19:50 339 0 gusting 1 -1.7
2020-Jan-20 19:45 355 0 gusting 1 -1.7
2020-Jan-20 19:40 358 0 gusting 1 -1.7
2020-Jan-20 19:35 340 0 gusting 1 -1.7
2020-Jan-20 19:30 333 0 gusting 1 -1.7
2020-Jan-20 19:25 345 0 gusting 1 -2.2
2020-Jan-20 19:20 356 0 gusting 1 -2.2
2020-Jan-20 19:15 355 0 gusting 1 -2.2
2020-Jan-20 19:05 349 0 gusting 1 -2.2
2020-Jan-20 19:00 001 -2.2
2020-Jan-20 18:55 001 -2.2
2020-Jan-20 18:50 001 -2.2
2020-Jan-20 18:45 001 -2.2
2020-Jan-20 18:40 343 -2.2
2020-Jan-20 18:35 330 -2.2
2020-Jan-20 18:30 314 -2.2
2020-Jan-20 18:25 314 -2.2
2020-Jan-20 18:20 322 -1.7
2020-Jan-20 18:15 319 -1.7
2020-Jan-20 18:10 309 0 gusting 1 -1.7
2020-Jan-20 18:05 310 0 gusting 1 -1.7
2020-Jan-20 18:00 317 0 gusting 1 -1.7
2020-Jan-20 17:55 314 -1.7
2020-Jan-20 17:50 331 0 gusting 1 -1.1
2020-Jan-20 17:45 329 1 gusting 1 -1.1
2020-Jan-20 17:40 322 0 gusting 1 -0.6
2020-Jan-20 17:35 318 0 gusting 1 -0.6
2020-Jan-20 17:30 318 0 gusting 1 -0.6
2020-Jan-20 17:25 322 0 gusting 1 -0.6
2020-Jan-20 17:20 330 0 gusting 1 -0.6
2020-Jan-20 17:15 348 0 gusting 1 -0.0
2020-Jan-20 17:10 341 0 gusting 1 -0.0
2020-Jan-20 17:05 325 0 gusting 1 -0.0
2020-Jan-20 17:00 339 0 gusting 1 0.6
2020-Jan-20 16:55 296 0 gusting 1 0.6
2020-Jan-20 16:50 293 1 gusting 2 1.1
2020-Jan-20 16:45 303 2 gusting 3 1.7
2020-Jan-20 16:40 321 3 gusting 4 1.7
2020-Jan-20 16:35 317 3 gusting 4 2.2
2020-Jan-20 16:30 307 3 gusting 4 2.2
2020-Jan-20 16:25 316 2 gusting 3 2.2
2020-Jan-20 16:20 314 2 gusting 3 2.8
2020-Jan-20 16:10 328 2 gusting 3 2.8
2020-Jan-20 16:05 323 2 gusting 3 3.3
2020-Jan-20 16:00 316 2 gusting 3 3.3
2020-Jan-20 15:55 306 3 gusting 3 3.3
2020-Jan-20 15:50 286 3 gusting 3 3.3
2020-Jan-20 15:45 277 2 gusting 3 3.3
2020-Jan-20 15:40 297 2 gusting 3 3.3
2020-Jan-20 15:35 306 2 gusting 3 3.3
2020-Jan-20 15:30 301 1 gusting 2 3.3
2020-Jan-20 15:25 310 1 gusting 2 3.3
2020-Jan-20 15:20 313 2 gusting 3 3.9
2020-Jan-20 15:15 315 2 gusting 3 3.9
2020-Jan-20 15:10 319 2 gusting 3 3.9
2020-Jan-20 15:05 318 1 gusting 3 3.9
2020-Jan-20 14:55 316 2 gusting 3 3.9
2020-Jan-20 14:50 307 2 gusting 3 3.9
2020-Jan-20 14:45 307 2 gusting 3 3.9
2020-Jan-20 14:35 313 3 gusting 5 4.4
2020-Jan-20 14:25 318 5 gusting 6 4.4
2020-Jan-20 14:20 320 4 gusting 6 4.4
2020-Jan-20 14:15 318 4 gusting 5 5.0
2020-Jan-20 14:10 323 4 gusting 6 5.0
2020-Jan-20 14:05 324 3 gusting 6 5.0
2020-Jan-20 14:00 327 3 gusting 4 5.0
2020-Jan-20 13:55 324 3 gusting 4 5.0
2020-Jan-20 13:50 325 3 gusting 3 5.0
2020-Jan-20 13:45 335 3 gusting 5 5.0
2020-Jan-20 13:40 330 3 gusting 5 5.0
2020-Jan-20 13:35 322 4 gusting 6 5.6
2020-Jan-20 13:25 316 4 gusting 6 5.0
2020-Jan-20 13:20 312 4 gusting 6 5.0
2020-Jan-20 13:15 352 4 gusting 5 5.0
2020-Jan-20 13:10 313 5 gusting 7 5.0
2020-Jan-20 13:05 307 4 gusting 7 5.0
2020-Jan-20 13:00 314 4 gusting 6 5.6